USA 81

Last updated on Thu Oct 30 2025 00:02:15 GMT+0000 (Coordinated Universal Time)

1 21949U 92023A 25302.46316426 .00000263 00000+0 90021-4 0 9991 2 21949 85.0117 207.1027 0002766 88.9457 271.2052 14.32302470 76008
UTC large
Height (km)
Speed (km/s)
/
Latitude / Longitude
Inclination (degrees)
Orbital Period (minutes)
Azimuth
Elevation
Range (km)
Doppler Factor

Next 0 passes for location: London (51.5072 / 0.1276)

Sorry there are no passes over London.